Погода в Шамилькала

Россия / Республика Дагестан     42°41′16″N   46°52′15″E
темп.,
°C
ветер,
м/с
пор.,
м/с
влажн.,
%
обл.,
%
осадки,
мм/ч
давл.,
гПа
погр.,
м
26 июля, пн
пн2600:00+15ююз119032 0.0 101918
03:00+14ююз11920 0.0 101912
06:00+16вюв11882 0.0 101999
09:00+20в337141 0.0 1018799
12:00+23всв335542 0.0 10161309
15:00+24св335028 0.0 10151132
18:00+20св236826 0.4 1016220
21:00+16вюв118114 1.1 101812
27 июля, вт
вт2700:00+16юз008686 1.8 101820
03:00+16ю2288100 2.3 101747
06:00+17ююв11836 0.4 101668
09:00+19всв347434 1.6 1016597
12:00+20всв446551 0.7 10151055
15:00+20всв346388 1.1 1014861
18:00+16св337897 0.4 1016277
21:00+14всв2287100 1.5 1018296
28 июля, ср
ср2800:00+13з1194100 10.2 1018132
03:00+13всв2297100 11.9 1017215
06:00+11св2285100 0.7 1019184
09:00+13всв1176100 0.8 1019372
12:00+12всв1185100 0.3 1019257
15:00+12в1185100 1.3 1019220
18:00+12св1185100 0.1 102063
21:00+12ю1183100 0.1 102116
29 июля, чт
чт2900:00+11юз2285100 0.3 102045
03:00+12юз2282100 0.3 101932
06:00+12ююз1180100 0.0 101929
09:00+14вюв1265100 0.0 1019506
12:00+19всв224910 0.0 10171416
15:00+20всв324969 0.0 10151651
18:00+19всв226220 0.0 1015221
21:00+13ю01780 0.0 101711
30 июля, пт
пт3000:00+13юз22770 0.0 101615
03:00+12зюз32780 0.0 101521
06:00+14зюз22750 0.0 101665
09:00+19вюв22570 0.0 1015821
12:00+22всв32487 0.0 10131529
15:00+23св324558 0.0 10111554
18:00+21св22583 0.0 1012128
21:00+16ююз11704 0.0 101411